Location: Dodge City Co - Operative Exchange Grain Elevator Number 8
(38.1218°N, 99.7124°W)
Time: 08:32:02
(UTC+00:00)

Cosmos 1151 Rocket - Pass Details

Date: 03 March 2021
Orbit: 592 x 616 km, 82.5° (Epoch: 12 April)

Event Time Altitude Azimuth Distance (km) Brightness Sun altitude
Rises 11:59:50 0° 180° (S) 2,859 6.5 -14.1°
Reaches altitude 10° 12:02:03 10° 178° (S) 1,956 5.6 -13.6°
Maximum altitude 12:06:21 69° 95° (E) 652 3.4 -12.8°
Drops below altitude 10° 12:10:39 10° 12° (NNE) 1,956 5.8 -12.0°
Sets 12:12:52 0° 10° (N) 2,860 6.6 -11.5°
